When you browse on this site, cookies collect data to enhance your experience and personalize the content and advertising you see.
Visit our Privacy Policy to learn more. By continuing to use the site, you agree to this use of cookies and data.
  • In Romania
  • List of Countries
  • For 7 days
  • Water Temperature
  • Satellite Maps
  • Weather Map
  • Weather Widgets
  • user-avatar
    Login

    Hourly Weather Serchhip

    Today, 22 April, Monday

    Time Temperature Precipitation Wind Pressure Humidity
    00:00 +19°C° 0 mm 1 mps 680 mmHg 59%
    01:00 +19°C° 0 mm 1 mps 679 mmHg 60%
    02:00 +19°C° 0 mm 1 mps 679 mmHg 61%
    03:00 +18°C° 0 mm 1 mps 679 mmHg 62%
    04:00 +18°C° 0 mm 1 mps 679 mmHg 62%
    05:00 +18°C° 0 mm 1 mps 679 mmHg 62%
    06:00 +20°C° 0 mm 1 mps 680 mmHg 61%
    07:00 +24°C° 0 mm 1 mps 681 mmHg 50%
    08:00 +26°C° 0 mm 0 mps 682 mmHg 39%
    09:00 +30°C° 0 mm 0 mps 683 mmHg 29%
    10:00 +33°C° 0 mm 1 mps 683 mmHg 26%
    11:00 +34°C° 0 mm 1 mps 682 mmHg 24%
    12:00 +34°C° 0 mm 2 mps 683 mmHg 24%
    13:00 +34°C° 0 mm 2 mps 682 mmHg 25%
    14:00 +32°C° 0 mm 2 mps 681 mmHg 27%
    15:00 +32°C° 0 mm 1 mps 681 mmHg 28%
    16:00 +30°C° 0 mm 1 mps 680 mmHg 33%
    17:00 +28°C° 0 mm 1 mps 680 mmHg 38%
    18:00 +26°C° 0 mm 1 mps 680 mmHg 42%
    19:00 +25°C° 0 mm 1 mps 680 mmHg 47%
    20:00 +23°C° 0 mm 1 mps 680 mmHg 52%
    21:00 +22°C° 0 mm 1 mps 680 mmHg 57%
    22:00 +21°C° 0 mm 1 mps 680 mmHg 58%
    23:00 +21°C° 0 mm 1 mps 680 mmHg 60%

    Tomorrow, 23 April, Tuesday

    Time Temperature Precipitation Wind Pressure Humidity
    00:00 +20°C° 0 mm 1 mps 680 mmHg 61%
    01:00 +20°C° 0 mm 1 mps 680 mmHg 62%
    02:00 +19°C° 0 mm 1 mps 680 mmHg 63%
    03:00 +19°C° 0 mm 1 mps 680 mmHg 64%
    04:00 +19°C° 0 mm 1 mps 680 mmHg 64%
    05:00 +19°C° 0 mm 1 mps 680 mmHg 65%
    06:00 +19°C° 0 mm 1 mps 680 mmHg 65%
    07:00 +22°C° 0 mm 0 mps 681 mmHg 52%
    08:00 +26°C° 0 mm 0 mps 683 mmHg 40%
    09:00 +31°C° 0 mm 0 mps 684 mmHg 28%
    10:00 +32°C° 0 mm 0 mps 684 mmHg 24%
    11:00 +35°C° 0 mm 1 mps 684 mmHg 20%
    12:00 +36°C° 0 mm 1 mps 683 mmHg 16%
    13:00 +36°C° 0 mm 2 mps 683 mmHg 17%
    14:00 +36°C° 0 mm 2 mps 682 mmHg 17%
    15:00 +36°C° 0 mm 2 mps 681 mmHg 17%
    16:00 +34°C° 0 mm 2 mps 681 mmHg 23%
    17:00 +30°C° 0 mm 1 mps 681 mmHg 29%
    18:00 +28°C° 0 mm 1 mps 680 mmHg 35%
    19:00 +26°C° 0 mm 1 mps 680 mmHg 41%
    20:00 +24°C° 0 mm 1 mps 681 mmHg 46%
    21:00 +22°C° 0 mm 1 mps 681 mmHg 51%
    22:00 +22°C° 0 mm 1 mps 681 mmHg 53%
    23:00 +21°C° 0 mm 1 mps 681 mmHg 55%

    Day after tomorrow, 24 April, Wednesday

    Time Temperature Precipitation Wind Pressure Humidity
    00:00 +19°C° 0 mm 0 mps 681 mmHg 56%
    01:00 +20°C° 0 mm 1 mps 681 mmHg 57%
    02:00 +20°C° 0 mm 1 mps 681 mmHg 58%
    03:00 +20°C° 0 mm 1 mps 680 mmHg 59%
    04:00 +20°C° 0 mm 1 mps 681 mmHg 60%
    05:00 +20°C° 0 mm 1 mps 681 mmHg 60%
    06:00 +20°C° 0 mm 1 mps 681 mmHg 61%
    07:00 +24°C° 0 mm 1 mps 682 mmHg 49%
    08:00 +27°C° 0 mm 0 mps 684 mmHg 37%
    09:00 +31°C° 0 mm 0 mps 685 mmHg 25%
    10:00 +35°C° 0 mm 1 mps 685 mmHg 22%
    11:00 +36°C° 0 mm 1 mps 684 mmHg 19%
    12:00 +37°C° 0 mm 1 mps 684 mmHg 16%
    13:00 +37°C° 0 mm 2 mps 683 mmHg 16%
    14:00 +37°C° 0 mm 2 mps 683 mmHg 17%
    15:00 +37°C° 0 mm 2 mps 682 mmHg 18%
    16:00 +34°C° 0 mm 2 mps 681 mmHg 24%
    17:00 +31°C° 0 mm 1 mps 681 mmHg 29%
    18:00 +29°C° 0 mm 1 mps 680 mmHg 35%
    19:00 +27°C° 0 mm 1 mps 681 mmHg 40%
    20:00 +25°C° 0 mm 1 mps 681 mmHg 45%
    21:00 +21°C° 0 mm 0 mps 681 mmHg 50%
    22:00 +21°C° 0 mm 0 mps 681 mmHg 52%
    23:00 +20°C° 0 mm 0 mps 681 mmHg 53%

    25 April, Thursday

    Time Temperature Precipitation Wind Pressure Humidity
    00:00 +20°C° 0 mm 0 mps 681 mmHg 55%
    01:00 +19°C° 0 mm 0 mps 681 mmHg 56%
    02:00 +21°C° 0 mm 1 mps 681 mmHg 57%
    03:00 +21°C° 0 mm 1 mps 680 mmHg 58%
    04:00 +21°C° 0 mm 1 mps 680 mmHg 59%
    05:00 +21°C° 0 mm 1 mps 681 mmHg 60%
    06:00 +21°C° 0 mm 1 mps 681 mmHg 61%
    07:00 +25°C° 0 mm 1 mps 682 mmHg 50%
    08:00 +27°C° 0 mm 0 mps 683 mmHg 40%
    09:00 +32°C° 0 mm 0 mps 684 mmHg 29%
    10:00 +35°C° 0 mm 1 mps 684 mmHg 26%
    11:00 +36°C° 0 mm 1 mps 684 mmHg 23%
    12:00 +38°C° 0 mm 2 mps 684 mmHg 20%
    13:00 +38°C° 0 mm 2 mps 683 mmHg 20%
    14:00 +38°C° 0 mm 2 mps 682 mmHg 20%
    15:00 +37°C° 0 mm 2 mps 681 mmHg 20%
    16:00 +35°C° 0 mm 2 mps 681 mmHg 25%
    17:00 +32°C° 0 mm 2 mps 681 mmHg 30%
    18:00 +30°C° 0 mm 1 mps 680 mmHg 34%
    19:00 +28°C° 0 mm 1 mps 681 mmHg 40%
    20:00 +27°C° 0 mm 1 mps 681 mmHg 46%
    21:00 +23°C° 0 mm 0 mps 681 mmHg 53%
    22:00 +22°C° 0 mm 0 mps 681 mmHg 55%
    23:00 +21°C° 0 mm 0 mps 681 mmHg 58%

    26 April, Friday

    Time Temperature Precipitation Wind Pressure Humidity
    00:00 +21°C° 0 mm 0 mps 681 mmHg 61%
    01:00 +20°C° 0 mm 0 mps 680 mmHg 62%
    02:00 +20°C° 0 mm 0 mps 680 mmHg 63%
    03:00 +19°C° 0 mm 0 mps 679 mmHg 64%
    04:00 +19°C° 0 mm 0 mps 679 mmHg 65%
    05:00 +19°C° 0 mm 0 mps 680 mmHg 65%
    06:00 +21°C° 0 mm 1 mps 680 mmHg 65%
    07:00 +24°C° 0 mm 0 mps 681 mmHg 54%
    08:00 +28°C° 0 mm 0 mps 682 mmHg 43%
    09:00 +32°C° 0 mm 0 mps 684 mmHg 31%
    10:00 +35°C° 0 mm 1 mps 683 mmHg 28%
    11:00 +36°C° 0 mm 1 mps 683 mmHg 24%
    12:00 +38°C° 0 mm 2 mps 682 mmHg 20%
    13:00 +38°C° 0 mm 2 mps 682 mmHg 20%
    14:00 +38°C° 0 mm 2 mps 681 mmHg 20%
    15:00 +37°C° 0 mm 2 mps 680 mmHg 20%
    16:00 +34°C° 0 mm 1 mps 680 mmHg 25%
    17:00 +32°C° 0 mm 1 mps 680 mmHg 29%
    18:00 +28°C° 0 mm 0 mps 680 mmHg 33%
    19:00 +26°C° 0 mm 0 mps 680 mmHg 38%
    20:00 +25°C° 0 mm 0 mps 680 mmHg 42%
    21:00 +24°C° 0 mm 0 mps 681 mmHg 47%
    22:00 +23°C° 0 mm 0 mps 681 mmHg 51%
    23:00 +22°C° 0 mm 0 mps 680 mmHg 56%

    27 April, Saturday

    Time Temperature Precipitation Wind Pressure Humidity
    00:00 +21°C° 0 mm 0 mps 680 mmHg 61%
    01:00 +20°C° 0 mm 0 mps 680 mmHg 63%
    02:00 +20°C° 0 mm 0 mps 680 mmHg 65%
    03:00 +20°C° 0 mm 0 mps 679 mmHg 67%
    04:00 +20°C° 0 mm 0 mps 680 mmHg 67%
    05:00 +20°C° 0 mm 0 mps 680 mmHg 68%
    06:00 +20°C° 0 mm 0 mps 680 mmHg 68%
    07:00 +25°C° 0 mm 1 mps 681 mmHg 57%
    08:00 +29°C° 0 mm 1 mps 682 mmHg 46%
    09:00 +33°C° 0 mm 1 mps 683 mmHg 35%
    10:00 +34°C° 0 mm 1 mps 683 mmHg 32%
    11:00 +35°C° 0 mm 1 mps 682 mmHg 29%
    12:00 +37°C° 0 mm 2 mps 682 mmHg 25%
    13:00 +37°C° 0 mm 2 mps 682 mmHg 25%
    14:00 +37°C° 0 mm 2 mps 681 mmHg 25%
    15:00 +37°C° 0 mm 2 mps 681 mmHg 24%
    16:00 +34°C° 0 mm 1 mps 680 mmHg 29%
    17:00 +32°C° 0 mm 1 mps 680 mmHg 34%
    18:00 +28°C° 0 mm 0 mps 680 mmHg 39%
    19:00 +26°C° 0 mm 0 mps 680 mmHg 45%
    20:00 +25°C° 0 mm 0 mps 680 mmHg 50%
    21:00 +23°C° 0 mm 0 mps 680 mmHg 55%
    22:00 +22°C° 0 mm 0 mps 680 mmHg 59%
    23:00 +21°C° 0 mm 0 mps 680 mmHg 63%
    Show more